[Date Prev][Date Next][Thread Prev][Thread Next] - [Date Index][Thread Index][Author Index]

2 Line ISS Keps 2-19



ISS
1 25544U 98067A   06050.36817128  .00013578  00000-0  94896-4 0  3805
2 25544 051.6416 073.4474 0007387 299.5915 190.1718 15.74610116414591
----
Via the sarex mailing list at AMSAT.ORG courtesy of AMSAT-NA.
To unsubscribe, send "unsubscribe sarex" to Majordomo@amsat.org



AMSAT Top AMSAT Home